Year,Month,Day,Hour,Minute,Value (Times are PST for windspeed in km/hr)
2010,10,27,00,00,2.80
2010,10,27,00,01,2.10
2010,10,27,00,02,3.10
2010,10,27,00,03,3.50
2010,10,27,00,04,2.90
2010,10,27,00,05,3.40
2010,10,27,00,06,2.20
2010,10,27,00,07,2.70
2010,10,27,00,08,1.90
2010,10,27,00,09,2.30
2010,10,27,00,10,0.10
2010,10,27,00,11,0.20
2010,10,27,00,12,0.70
2010,10,27,00,13,1.40
2010,10,27,00,14,0.20
2010,10,27,00,15,2.40
2010,10,27,00,16,2.40
2010,10,27,00,17,1.20
2010,10,27,00,18,1.20
2010,10,27,00,19,1.10
2010,10,27,00,20,1.90
2010,10,27,00,21,5.10
2010,10,27,00,22,3.70
2010,10,27,00,23,5.30
2010,10,27,00,24,3.70
2010,10,27,00,25,5.60
2010,10,27,00,26,4.20
2010,10,27,00,27,3.50
2010,10,27,00,28,3.00
2010,10,27,00,29,4.30
2010,10,27,00,30,3.10
2010,10,27,00,31,1.20
2010,10,27,00,32,0.00
2010,10,27,00,33,2.40
2010,10,27,00,34,0.50
2010,10,27,00,35,0.80
2010,10,27,00,36,0.40
2010,10,27,00,37,2.20
2010,10,27,00,38,4.10
2010,10,27,00,39,1.70
2010,10,27,00,40,3.00
2010,10,27,00,41,4.10
2010,10,27,00,42,2.60
2010,10,27,00,43,2.60
2010,10,27,00,44,2.30
2010,10,27,00,45,5.30
2010,10,27,00,46,4.10
2010,10,27,00,47,3.40
2010,10,27,00,48,3.00
2010,10,27,00,49,2.30
2010,10,27,00,50,2.60
2010,10,27,00,51,2.80
2010,10,27,00,52,3.20
2010,10,27,00,53,3.70
2010,10,27,00,54,3.80
2010,10,27,00,55,3.30
2010,10,27,00,56,4.50
2010,10,27,00,57,3.70
2010,10,27,00,58,7.30
2010,10,27,00,59,4.50
2010,10,27,01,00,1.70
2010,10,27,01,01,0.10
2010,10,27,01,02,0.00
2010,10,27,01,03,0.20
2010,10,27,01,04,0.60
2010,10,27,01,05,0.00
2010,10,27,01,06,0.00
2010,10,27,01,07,0.90
2010,10,27,01,08,2.80
2010,10,27,01,09,2.60
2010,10,27,01,10,0.50
2010,10,27,01,11,4.70
2010,10,27,01,12,5.00
2010,10,27,01,13,3.30
2010,10,27,01,14,0.80
2010,10,27,01,15,2.80
2010,10,27,01,16,4.20
2010,10,27,01,17,6.30
2010,10,27,01,18,4.70
2010,10,27,01,19,3.90
2010,10,27,01,20,3.60
2010,10,27,01,21,3.70
2010,10,27,01,22,1.90
2010,10,27,01,23,0.00
2010,10,27,01,24,0.00
2010,10,27,01,25,0.10
2010,10,27,01,26,2.30
2010,10,27,01,27,2.30
2010,10,27,01,28,0.90
2010,10,27,01,29,0.00
2010,10,27,01,30,1.90
2010,10,27,01,31,1.20
2010,10,27,01,32,0.20
2010,10,27,01,33,1.90
2010,10,27,01,34,3.80
2010,10,27,01,35,2.30
2010,10,27,01,36,0.20
2010,10,27,01,37,0.00
2010,10,27,01,38,0.00
2010,10,27,01,39,0.00
2010,10,27,01,40,0.00
2010,10,27,01,41,0.10
2010,10,27,01,42,0.10
2010,10,27,01,43,0.60
2010,10,27,01,44,0.00
2010,10,27,01,45,0.00
2010,10,27,01,46,0.00
2010,10,27,01,47,0.00
2010,10,27,01,48,0.00
2010,10,27,01,49,0.00
2010,10,27,01,50,0.20
2010,10,27,01,51,0.30
2010,10,27,01,52,0.00
2010,10,27,01,53,0.00
2010,10,27,01,54,0.00
2010,10,27,01,55,0.00
2010,10,27,01,56,0.00
2010,10,27,01,57,0.00
2010,10,27,01,58,0.00
2010,10,27,01,59,0.00
2010,10,27,02,00,0.00
2010,10,27,02,01,1.40
2010,10,27,02,02,1.10
2010,10,27,02,03,0.30
2010,10,27,02,04,1.70
2010,10,27,02,05,0.60
2010,10,27,02,06,0.00
2010,10,27,02,07,1.60
2010,10,27,02,08,1.50
2010,10,27,02,09,1.80
2010,10,27,02,10,1.90
2010,10,27,02,11,1.20
2010,10,27,02,12,0.00
2010,10,27,02,13,0.00
2010,10,27,02,14,0.00
2010,10,27,02,15,0.70
2010,10,27,02,16,0.00
2010,10,27,02,17,0.00
2010,10,27,02,18,0.00
2010,10,27,02,19,0.00
2010,10,27,02,20,0.00
2010,10,27,02,21,0.00
2010,10,27,02,22,0.00
2010,10,27,02,23,0.00
2010,10,27,02,24,0.00
2010,10,27,02,25,0.00
2010,10,27,02,26,0.00
2010,10,27,02,27,0.00
2010,10,27,02,28,0.00
2010,10,27,02,29,0.00
2010,10,27,02,30,0.00
2010,10,27,02,31,0.00
2010,10,27,02,32,0.00
2010,10,27,02,33,0.00
2010,10,27,02,34,0.00
2010,10,27,02,35,0.00
2010,10,27,02,36,0.00
2010,10,27,02,37,0.00
2010,10,27,02,38,0.00
2010,10,27,02,39,0.00
2010,10,27,02,40,0.00
2010,10,27,02,41,0.00
2010,10,27,02,42,0.00
2010,10,27,02,43,0.00
2010,10,27,02,44,0.00
2010,10,27,02,45,0.00
2010,10,27,02,46,0.00
2010,10,27,02,47,0.00
2010,10,27,02,48,0.00
2010,10,27,02,49,0.00
2010,10,27,02,50,0.00
2010,10,27,02,51,0.00
2010,10,27,02,52,0.00
2010,10,27,02,53,0.00
2010,10,27,02,54,0.00
2010,10,27,02,55,0.00
2010,10,27,02,56,0.00
2010,10,27,02,57,0.00
2010,10,27,02,58,0.00
2010,10,27,02,59,0.00
2010,10,27,03,00,0.00
2010,10,27,03,01,0.00
2010,10,27,03,02,0.00
2010,10,27,03,03,0.00
2010,10,27,03,04,0.00
2010,10,27,03,05,0.00
2010,10,27,03,06,0.00
2010,10,27,03,07,0.00
2010,10,27,03,08,0.00
2010,10,27,03,09,0.00
2010,10,27,03,10,0.00
2010,10,27,03,11,0.00
2010,10,27,03,12,0.00
2010,10,27,03,13,0.00
2010,10,27,03,14,0.00
2010,10,27,03,15,0.00
2010,10,27,03,16,0.00
2010,10,27,03,17,0.00
2010,10,27,03,18,0.00
2010,10,27,03,19,0.00
2010,10,27,03,20,0.00
2010,10,27,03,21,0.00
2010,10,27,03,22,0.00
2010,10,27,03,23,0.00
2010,10,27,03,24,0.00
2010,10,27,03,25,0.00
2010,10,27,03,26,0.00
2010,10,27,03,27,0.00
2010,10,27,03,28,0.00
2010,10,27,03,29,0.00
2010,10,27,03,30,0.00
2010,10,27,03,31,0.00
2010,10,27,03,32,0.00
2010,10,27,03,33,0.00
2010,10,27,03,34,0.00
2010,10,27,03,35,0.00
2010,10,27,03,36,0.00
2010,10,27,03,37,0.00
2010,10,27,03,38,0.00
2010,10,27,03,39,0.00
2010,10,27,03,40,0.00
2010,10,27,03,41,0.00
2010,10,27,03,42,0.00
2010,10,27,03,43,0.00
2010,10,27,03,44,0.00
2010,10,27,03,45,0.00
2010,10,27,03,46,0.00
2010,10,27,03,47,0.00
2010,10,27,03,48,0.00
2010,10,27,03,49,0.00
2010,10,27,03,50,0.00
2010,10,27,03,51,0.00
2010,10,27,03,52,0.00
2010,10,27,03,53,0.30
2010,10,27,03,54,2.40
2010,10,27,03,55,2.00
2010,10,27,03,56,1.80
2010,10,27,03,57,1.70
2010,10,27,03,58,1.70
2010,10,27,03,59,0.20
2010,10,27,04,00,1.60
2010,10,27,04,01,0.20
2010,10,27,04,02,0.00
2010,10,27,04,03,0.00
2010,10,27,04,04,0.00
2010,10,27,04,05,0.00
2010,10,27,04,06,0.00
2010,10,27,04,07,0.00
2010,10,27,04,08,0.00
2010,10,27,04,09,0.00
2010,10,27,04,10,0.00
2010,10,27,04,11,0.00
2010,10,27,04,12,0.00
2010,10,27,04,13,0.00
2010,10,27,04,14,0.00
2010,10,27,04,15,0.00
2010,10,27,04,16,0.00
2010,10,27,04,17,0.00
2010,10,27,04,18,0.00
2010,10,27,04,19,0.00
2010,10,27,04,20,0.00
2010,10,27,04,21,0.00
2010,10,27,04,22,0.00
2010,10,27,04,23,0.00
2010,10,27,04,24,0.00
2010,10,27,04,25,0.00
2010,10,27,04,26,0.00
2010,10,27,04,27,0.00
2010,10,27,04,28,0.00
2010,10,27,04,29,0.00
2010,10,27,04,30,0.00
2010,10,27,04,31,0.00
2010,10,27,04,32,0.00
2010,10,27,04,33,0.00
2010,10,27,04,34,0.00
2010,10,27,04,35,0.00
2010,10,27,04,36,0.00
2010,10,27,04,37,0.00
2010,10,27,04,38,0.00
2010,10,27,04,39,0.00
2010,10,27,04,40,0.00
2010,10,27,04,41,0.00
2010,10,27,04,42,0.00
2010,10,27,04,43,0.00
2010,10,27,04,44,0.00
2010,10,27,04,45,0.00
2010,10,27,04,46,0.00
2010,10,27,04,47,0.00
2010,10,27,04,48,0.00
2010,10,27,04,49,0.00
2010,10,27,04,50,0.00
2010,10,27,04,51,0.00
2010,10,27,04,52,0.00
2010,10,27,04,53,0.00
2010,10,27,04,54,0.00
2010,10,27,04,55,0.00
2010,10,27,04,56,0.00
2010,10,27,04,57,0.00
2010,10,27,04,58,0.00
2010,10,27,04,59,0.00
2010,10,27,05,00,0.00
2010,10,27,05,01,0.00
2010,10,27,05,02,0.00
2010,10,27,05,03,0.00
2010,10,27,05,04,0.00
2010,10,27,05,05,0.00
2010,10,27,05,06,0.00
2010,10,27,05,07,0.00
2010,10,27,05,08,0.00
2010,10,27,05,09,0.40
2010,10,27,05,10,0.20
2010,10,27,05,11,0.10
2010,10,27,05,12,0.30
2010,10,27,05,13,0.50
2010,10,27,05,14,0.00
2010,10,27,05,15,0.00
2010,10,27,05,16,0.00
2010,10,27,05,17,0.00
2010,10,27,05,18,0.20
2010,10,27,05,19,1.90
2010,10,27,05,20,0.00
2010,10,27,05,21,0.40
2010,10,27,05,22,2.50
2010,10,27,05,23,2.00
2010,10,27,05,24,2.40
2010,10,27,05,25,2.80
2010,10,27,05,26,2.60
2010,10,27,05,27,3.10
2010,10,27,05,28,2.60
2010,10,27,05,29,1.90
2010,10,27,05,30,0.30
2010,10,27,05,31,0.10
2010,10,27,05,32,1.00
2010,10,27,05,33,0.50
2010,10,27,05,34,1.30
2010,10,27,05,35,1.70
2010,10,27,05,36,1.80
2010,10,27,05,37,1.10
2010,10,27,05,38,2.00
2010,10,27,05,39,1.90
2010,10,27,05,40,1.70
2010,10,27,05,41,2.30
2010,10,27,05,42,2.70
2010,10,27,05,43,2.10
2010,10,27,05,44,3.80
2010,10,27,05,45,3.50
2010,10,27,05,46,3.00
2010,10,27,05,47,1.90
2010,10,27,05,48,1.20
2010,10,27,05,49,1.40
2010,10,27,05,50,0.80
2010,10,27,05,51,1.10
2010,10,27,05,52,0.70
2010,10,27,05,53,0.40
2010,10,27,05,54,0.00
2010,10,27,05,55,1.50
2010,10,27,05,56,0.90
2010,10,27,05,57,1.60
2010,10,27,05,58,2.50
2010,10,27,05,59,3.40
2010,10,27,06,00,2.90
2010,10,27,06,01,2.00
2010,10,27,06,02,1.90
2010,10,27,06,03,2.30
2010,10,27,06,04,1.30
2010,10,27,06,05,1.30
2010,10,27,06,06,1.90
2010,10,27,06,07,1.90
2010,10,27,06,08,2.30
2010,10,27,06,09,2.60
2010,10,27,06,10,1.90
2010,10,27,06,11,1.90
2010,10,27,06,12,0.80
2010,10,27,06,13,1.10
2010,10,27,06,14,0.80
2010,10,27,06,15,2.70
2010,10,27,06,16,1.90
2010,10,27,06,17,1.80
2010,10,27,06,18,2.10
2010,10,27,06,19,1.90
2010,10,27,06,20,2.30
2010,10,27,06,21,1.50
2010,10,27,06,22,1.40
2010,10,27,06,23,0.70
2010,10,27,06,24,0.10
2010,10,27,06,25,0.10
2010,10,27,06,26,2.20
2010,10,27,06,27,2.40
2010,10,27,06,28,1.40
2010,10,27,06,29,1.50
2010,10,27,06,30,1.40
2010,10,27,06,31,0.60
2010,10,27,06,32,0.20
2010,10,27,06,33,0.00
2010,10,27,06,34,0.00
2010,10,27,06,35,0.60
2010,10,27,06,36,0.00
2010,10,27,06,37,0.00
2010,10,27,06,38,0.00
2010,10,27,06,39,0.00
2010,10,27,06,40,0.00
2010,10,27,06,41,0.00
2010,10,27,06,42,0.00
2010,10,27,06,43,0.00
2010,10,27,06,44,0.00
2010,10,27,06,45,0.00
2010,10,27,06,46,0.00
2010,10,27,06,47,0.00
2010,10,27,06,48,0.00
2010,10,27,06,49,0.00
2010,10,27,06,50,0.20
2010,10,27,06,51,0.00
2010,10,27,06,52,0.00
2010,10,27,06,53,0.00
2010,10,27,06,54,0.00
2010,10,27,06,55,0.00
2010,10,27,06,56,0.00
2010,10,27,06,57,0.00
2010,10,27,06,58,0.00
2010,10,27,06,59,0.10
2010,10,27,07,00,0.60
2010,10,27,07,01,0.20
2010,10,27,07,02,0.00
2010,10,27,07,03,0.00
2010,10,27,07,04,0.00
2010,10,27,07,05,0.00
2010,10,27,07,06,0.00
2010,10,27,07,07,0.10
2010,10,27,07,08,0.00
2010,10,27,07,09,0.00
2010,10,27,07,10,0.00
2010,10,27,07,11,0.30
2010,10,27,07,12,1.80
2010,10,27,07,13,0.40
2010,10,27,07,14,0.20
2010,10,27,07,15,0.50
2010,10,27,07,16,0.00
2010,10,27,07,17,0.00
2010,10,27,07,18,0.00
2010,10,27,07,19,0.00
2010,10,27,07,20,0.00
2010,10,27,07,21,0.00
2010,10,27,07,22,0.00
2010,10,27,07,23,0.00
2010,10,27,07,24,0.00
2010,10,27,07,25,0.00
2010,10,27,07,26,0.00
2010,10,27,07,27,0.00
2010,10,27,07,28,0.00
2010,10,27,07,29,0.00
2010,10,27,07,30,0.00
2010,10,27,07,31,0.00
2010,10,27,07,32,0.00
2010,10,27,07,33,0.00
2010,10,27,07,34,0.00
2010,10,27,07,35,0.00
2010,10,27,07,36,0.00
2010,10,27,07,37,0.00
2010,10,27,07,38,0.00
2010,10,27,07,39,1.30
2010,10,27,07,40,0.20
2010,10,27,07,41,0.00
2010,10,27,07,42,0.10
2010,10,27,07,43,0.00
2010,10,27,07,44,0.70
2010,10,27,07,45,2.00
2010,10,27,07,46,0.70
2010,10,27,07,47,0.00
2010,10,27,07,48,0.00
2010,10,27,07,49,0.00
2010,10,27,07,50,0.00
2010,10,27,07,51,1.00
2010,10,27,07,52,0.60
2010,10,27,07,53,0.40
2010,10,27,07,54,0.50
2010,10,27,07,55,0.00
2010,10,27,07,56,0.00
2010,10,27,07,57,0.00
2010,10,27,07,58,0.20
2010,10,27,07,59,0.20
2010,10,27,08,00,0.00
2010,10,27,08,01,0.40
2010,10,27,08,02,0.20
2010,10,27,08,03,0.00
2010,10,27,08,04,0.00
2010,10,27,08,05,0.00
2010,10,27,08,06,0.00
2010,10,27,08,07,0.00
2010,10,27,08,08,0.00
2010,10,27,08,09,0.00
2010,10,27,08,10,0.00
2010,10,27,08,11,0.40
2010,10,27,08,12,0.20
2010,10,27,08,13,0.10
2010,10,27,08,14,0.00
2010,10,27,08,15,0.00
2010,10,27,08,16,0.00
2010,10,27,08,17,0.00
2010,10,27,08,18,0.00
2010,10,27,08,19,0.00
2010,10,27,08,20,0.00
2010,10,27,08,21,0.00
2010,10,27,08,22,0.00
2010,10,27,08,23,0.00
2010,10,27,08,24,0.00
2010,10,27,08,25,0.00
2010,10,27,08,26,0.00
2010,10,27,08,27,0.00
2010,10,27,08,28,0.00
2010,10,27,08,29,0.00
2010,10,27,08,30,0.00
2010,10,27,08,31,0.00
2010,10,27,08,32,0.00
2010,10,27,08,33,0.00
2010,10,27,08,34,0.00
2010,10,27,08,35,0.60
2010,10,27,08,36,0.50
2010,10,27,08,37,0.00
2010,10,27,08,38,0.00
2010,10,27,08,39,0.00
2010,10,27,08,40,0.00
2010,10,27,08,41,0.20
2010,10,27,08,42,0.50
2010,10,27,08,43,0.00
2010,10,27,08,44,0.00
2010,10,27,08,45,0.00
2010,10,27,08,46,0.20
2010,10,27,08,47,0.00
2010,10,27,08,48,0.00
2010,10,27,08,49,0.00
2010,10,27,08,50,0.00
2010,10,27,08,51,0.90
2010,10,27,08,52,6.50
2010,10,27,08,53,2.60
2010,10,27,08,54,3.00
2010,10,27,08,55,3.40
2010,10,27,08,56,3.60
2010,10,27,08,57,2.70
2010,10,27,08,58,3.50
2010,10,27,08,59,3.50
2010,10,27,09,00,0.40
2010,10,27,09,01,4.20
2010,10,27,09,02,3.90
2010,10,27,09,03,4.80
2010,10,27,09,04,4.00
2010,10,27,09,05,5.30
2010,10,27,09,06,9.10
2010,10,27,09,07,7.30
2010,10,27,09,08,7.70
2010,10,27,09,09,5.60
2010,10,27,09,10,3.90
2010,10,27,09,11,4.30
2010,10,27,09,12,6.30
2010,10,27,09,13,7.40
2010,10,27,09,14,5.80
2010,10,27,09,15,5.70
2010,10,27,09,16,6.40
2010,10,27,09,17,4.00
2010,10,27,09,18,4.60
2010,10,27,09,19,5.80
2010,10,27,09,20,5.40
2010,10,27,09,21,6.80
2010,10,27,09,22,2.60
2010,10,27,09,23,6.50
2010,10,27,09,24,5.50
2010,10,27,09,25,8.10
2010,10,27,09,26,8.90
2010,10,27,09,27,7.00
2010,10,27,09,28,8.10
2010,10,27,09,29,8.80
2010,10,27,09,30,8.60
2010,10,27,09,31,4.70
2010,10,27,09,32,4.80
2010,10,27,09,33,4.90
2010,10,27,09,34,2.30
2010,10,27,09,35,5.30
2010,10,27,09,36,9.00
2010,10,27,09,37,11.90
2010,10,27,09,38,12.80
2010,10,27,09,39,8.10
2010,10,27,09,40,7.90
2010,10,27,09,41,7.50
2010,10,27,09,42,7.70
2010,10,27,09,43,6.80
2010,10,27,09,44,6.40
2010,10,27,09,45,5.60
2010,10,27,09,46,5.40
2010,10,27,09,47,7.60
2010,10,27,09,48,5.80
2010,10,27,09,49,3.60
2010,10,27,09,50,5.10
2010,10,27,09,51,6.90
2010,10,27,09,52,6.10
2010,10,27,09,53,8.60
2010,10,27,09,54,8.30
2010,10,27,09,55,10.50
2010,10,27,09,56,13.30
2010,10,27,09,57,6.80
2010,10,27,09,58,13.00
2010,10,27,09,59,6.30
2010,10,27,10,00,4.20
2010,10,27,10,01,9.50
2010,10,27,10,02,5.30
2010,10,27,10,03,5.90
2010,10,27,10,04,12.00
2010,10,27,10,05,12.00
2010,10,27,10,06,7.20
2010,10,27,10,07,10.80
2010,10,27,10,08,9.50
2010,10,27,10,09,6.00
2010,10,27,10,10,9.70
2010,10,27,10,11,8.60
2010,10,27,10,12,4.70
2010,10,27,10,13,3.00
2010,10,27,10,14,8.20
2010,10,27,10,15,4.60
2010,10,27,10,16,4.60
2010,10,27,10,17,6.50
2010,10,27,10,18,6.10
2010,10,27,10,19,9.20
2010,10,27,10,20,7.30
2010,10,27,10,21,8.60
2010,10,27,10,22,9.30
2010,10,27,10,23,7.20
2010,10,27,10,24,6.80
2010,10,27,10,25,15.20
2010,10,27,10,26,13.80
2010,10,27,10,27,10.40
2010,10,27,10,28,5.90
2010,10,27,10,29,8.90
2010,10,27,10,30,8.00
2010,10,27,10,31,4.00
2010,10,27,10,32,6.30
2010,10,27,10,33,11.40
2010,10,27,10,34,9.30
2010,10,27,10,35,7.90
2010,10,27,10,36,7.60
2010,10,27,10,37,3.10
2010,10,27,10,38,8.00
2010,10,27,10,39,6.50
2010,10,27,10,40,10.10
2010,10,27,10,41,9.30
2010,10,27,10,42,6.90
2010,10,27,10,43,7.70
2010,10,27,10,44,8.10
2010,10,27,10,45,7.10
2010,10,27,10,46,6.80
2010,10,27,10,47,7.90
2010,10,27,10,48,2.90
2010,10,27,10,49,3.10
2010,10,27,10,50,6.80
2010,10,27,10,51,7.70
2010,10,27,10,52,4.60
2010,10,27,10,53,3.60
2010,10,27,10,54,7.80
2010,10,27,10,55,3.80
2010,10,27,10,56,1.20
2010,10,27,10,57,7.70
2010,10,27,10,58,4.70
2010,10,27,10,59,2.70
2010,10,27,11,00,4.40
2010,10,27,11,01,0.20
2010,10,27,11,02,0.50
2010,10,27,11,03,2.50
2010,10,27,11,04,6.10
2010,10,27,11,05,10.10
2010,10,27,11,06,5.10
2010,10,27,11,07,5.30
2010,10,27,11,08,2.20
2010,10,27,11,09,4.90
2010,10,27,11,10,6.10
2010,10,27,11,11,5.20
2010,10,27,11,12,6.50
2010,10,27,11,13,6.70
2010,10,27,11,14,9.30
2010,10,27,11,15,5.50
2010,10,27,11,16,3.50
2010,10,27,11,17,3.90
2010,10,27,11,18,3.40
2010,10,27,11,19,6.10
2010,10,27,11,20,10.00
2010,10,27,11,21,9.50
2010,10,27,11,22,8.50
2010,10,27,11,23,13.40
2010,10,27,11,24,10.80
2010,10,27,11,25,4.60
2010,10,27,11,26,3.50
2010,10,27,11,27,4.70
2010,10,27,11,28,8.00
2010,10,27,11,29,13.90
2010,10,27,11,30,7.90
2010,10,27,11,31,9.30
2010,10,27,11,32,10.20
2010,10,27,11,33,7.20
2010,10,27,11,34,6.50
2010,10,27,11,35,5.20
2010,10,27,11,36,3.60
2010,10,27,11,37,3.40
2010,10,27,11,38,3.10
2010,10,27,11,39,2.90
2010,10,27,11,40,7.10
2010,10,27,11,41,6.60
2010,10,27,11,42,3.10
2010,10,27,11,43,1.90
2010,10,27,11,44,10.10
2010,10,27,11,45,11.40
2010,10,27,11,46,3.90
2010,10,27,11,47,4.10
2010,10,27,11,48,1.90
2010,10,27,11,49,2.10
2010,10,27,11,50,3.20
2010,10,27,11,51,3.40
2010,10,27,11,52,3.80
2010,10,27,11,53,6.10
2010,10,27,11,54,4.80
2010,10,27,11,55,1.80
2010,10,27,11,56,5.00
2010,10,27,11,57,5.10
2010,10,27,11,58,3.90
2010,10,27,11,59,5.20
2010,10,27,12,00,4.90
2010,10,27,12,01,6.00
2010,10,27,12,02,7.60
2010,10,27,12,03,6.00
2010,10,27,12,04,4.80
2010,10,27,12,05,7.90
2010,10,27,12,06,6.40
2010,10,27,12,07,6.10
2010,10,27,12,08,5.80
2010,10,27,12,09,6.40
2010,10,27,12,10,7.80
2010,10,27,12,11,8.40
2010,10,27,12,12,3.40
2010,10,27,12,13,4.40
2010,10,27,12,14,4.10
2010,10,27,12,15,3.70
2010,10,27,12,16,5.10
2010,10,27,12,17,4.70
2010,10,27,12,18,4.20
2010,10,27,12,19,5.60
2010,10,27,12,20,6.90
2010,10,27,12,21,4.10
2010,10,27,12,22,3.20
2010,10,27,12,23,4.00
2010,10,27,12,24,5.80
2010,10,27,12,25,2.10
2010,10,27,12,26,7.80
2010,10,27,12,27,5.70
2010,10,27,12,28,3.50
2010,10,27,12,29,6.90
2010,10,27,12,30,4.10
2010,10,27,12,31,3.50
2010,10,27,12,32,5.00
2010,10,27,12,33,4.90
2010,10,27,12,34,3.50
2010,10,27,12,35,1.00
2010,10,27,12,36,4.10
2010,10,27,12,37,6.40
2010,10,27,12,38,4.90
2010,10,27,12,39,3.40
2010,10,27,12,40,4.10
2010,10,27,12,41,3.20
2010,10,27,12,42,3.30
2010,10,27,12,43,2.30
2010,10,27,12,44,3.10
2010,10,27,12,45,8.00
2010,10,27,12,46,4.20
2010,10,27,12,47,2.00
2010,10,27,12,48,2.70
2010,10,27,12,49,5.00
2010,10,27,12,50,2.80
2010,10,27,12,51,5.30
2010,10,27,12,52,2.90
2010,10,27,12,53,6.30
2010,10,27,12,54,6.40
2010,10,27,12,55,4.30
2010,10,27,12,56,11.00
2010,10,27,12,57,11.70
2010,10,27,12,58,5.30
2010,10,27,12,59,6.20
2010,10,27,13,00,7.20
2010,10,27,13,01,6.40
2010,10,27,13,02,5.80
2010,10,27,13,03,4.40
2010,10,27,13,04,5.50
2010,10,27,13,05,9.00
2010,10,27,13,06,4.80
2010,10,27,13,07,6.00
2010,10,27,13,08,8.50
2010,10,27,13,09,6.60
2010,10,27,13,10,5.40
2010,10,27,13,11,2.90
2010,10,27,13,12,7.60
2010,10,27,13,13,9.70
2010,10,27,13,14,7.50
2010,10,27,13,15,5.40
2010,10,27,13,16,7.00
2010,10,27,13,17,8.50
2010,10,27,13,18,8.70
2010,10,27,13,19,3.80
2010,10,27,13,20,3.60
2010,10,27,13,21,4.80
2010,10,27,13,22,7.60
2010,10,27,13,23,5.60
2010,10,27,13,24,7.20
2010,10,27,13,25,11.40
2010,10,27,13,26,8.60
2010,10,27,13,27,4.60
2010,10,27,13,28,5.80
2010,10,27,13,29,10.10
2010,10,27,13,30,6.30
2010,10,27,13,31,2.20
2010,10,27,13,32,1.30
2010,10,27,13,33,4.30
2010,10,27,13,34,3.90
2010,10,27,13,35,6.60
2010,10,27,13,36,6.90
2010,10,27,13,37,9.50
2010,10,27,13,38,8.80
2010,10,27,13,39,4.20
2010,10,27,13,40,6.20
2010,10,27,13,41,2.90
2010,10,27,13,42,4.20
2010,10,27,13,43,7.80
2010,10,27,13,44,2.80
2010,10,27,13,45,4.20
2010,10,27,13,46,2.70
2010,10,27,13,47,3.60
2010,10,27,13,48,4.10
2010,10,27,13,49,7.70
2010,10,27,13,50,4.30
2010,10,27,13,51,0.30
2010,10,27,13,52,1.90
2010,10,27,13,53,5.00
2010,10,27,13,54,5.30
2010,10,27,13,55,8.10
2010,10,27,13,56,8.60
2010,10,27,13,57,6.90
2010,10,27,13,58,6.90
2010,10,27,13,59,6.80
2010,10,27,14,00,8.00
2010,10,27,14,01,9.40
2010,10,27,14,02,9.30
2010,10,27,14,03,8.90
2010,10,27,14,04,4.40
2010,10,27,14,05,3.20
2010,10,27,14,06,8.60
2010,10,27,14,07,7.30
2010,10,27,14,08,9.30
2010,10,27,14,09,6.60
2010,10,27,14,10,5.10
2010,10,27,14,11,8.60
2010,10,27,14,12,5.70
2010,10,27,14,13,6.10
2010,10,27,14,14,9.10
2010,10,27,14,15,11.00
2010,10,27,14,16,7.80
2010,10,27,14,17,9.00
2010,10,27,14,18,7.50
2010,10,27,14,19,10.40
2010,10,27,14,20,9.00
2010,10,27,14,21,5.90
2010,10,27,14,22,3.50
2010,10,27,14,23,6.40
2010,10,27,14,24,7.60
2010,10,27,14,25,8.70
2010,10,27,14,26,5.20
2010,10,27,14,27,11.30
2010,10,27,14,28,9.20
2010,10,27,14,29,7.90
2010,10,27,14,30,8.20
2010,10,27,14,31,14.00
2010,10,27,14,32,8.90
2010,10,27,14,33,13.40
2010,10,27,14,34,10.90
2010,10,27,14,35,8.10
2010,10,27,14,36,6.90
2010,10,27,14,37,7.50
2010,10,27,14,38,14.70
2010,10,27,14,39,13.00
2010,10,27,14,40,7.40
2010,10,27,14,41,12.50
2010,10,27,14,42,10.60
2010,10,27,14,43,15.40
2010,10,27,14,44,14.50
2010,10,27,14,45,12.50
2010,10,27,14,46,15.70
2010,10,27,14,47,12.60
2010,10,27,14,48,9.20
2010,10,27,14,49,17.00
2010,10,27,14,50,19.70
2010,10,27,14,51,14.30
2010,10,27,14,52,11.40
2010,10,27,14,53,10.10
2010,10,27,14,54,10.40
2010,10,27,14,55,8.60
2010,10,27,14,56,5.60
2010,10,27,14,57,6.00
2010,10,27,14,58,8.50
2010,10,27,14,59,6.80
2010,10,27,15,00,10.20
2010,10,27,15,01,12.20
2010,10,27,15,02,13.30
2010,10,27,15,03,11.30
2010,10,27,15,04,11.40
2010,10,27,15,05,13.10
2010,10,27,15,06,11.10
2010,10,27,15,07,13.70
2010,10,27,15,08,13.20
2010,10,27,15,09,7.70
2010,10,27,15,10,11.70
2010,10,27,15,11,14.80
2010,10,27,15,12,12.60
2010,10,27,15,13,16.00
2010,10,27,15,14,18.30
2010,10,27,15,15,14.80
2010,10,27,15,16,9.90
2010,10,27,15,17,16.40
2010,10,27,15,18,13.50
2010,10,27,15,19,10.10
2010,10,27,15,20,13.00
2010,10,27,15,21,15.80
2010,10,27,15,22,14.70
2010,10,27,15,23,14.90
2010,10,27,15,24,12.90
2010,10,27,15,25,8.20
2010,10,27,15,26,12.10
2010,10,27,15,27,14.80
2010,10,27,15,28,7.80
2010,10,27,15,29,5.50
2010,10,27,15,30,8.20
2010,10,27,15,31,8.70
2010,10,27,15,32,12.60
2010,10,27,15,33,8.50
2010,10,27,15,34,6.00
2010,10,27,15,35,7.70
2010,10,27,15,36,15.20
2010,10,27,15,37,12.50
2010,10,27,15,38,11.20
2010,10,27,15,39,10.50
2010,10,27,15,40,10.20
2010,10,27,15,41,9.20
2010,10,27,15,42,13.10
2010,10,27,15,43,12.30
2010,10,27,15,44,8.80
2010,10,27,15,45,15.70
2010,10,27,15,46,18.20
2010,10,27,15,47,10.00
2010,10,27,15,48,11.60
2010,10,27,15,49,9.90
2010,10,27,15,50,14.10
2010,10,27,15,51,14.30
2010,10,27,15,52,10.50
2010,10,27,15,53,12.90
2010,10,27,15,54,8.70
2010,10,27,15,55,6.70
2010,10,27,15,56,13.00
2010,10,27,15,57,11.70
2010,10,27,15,58,7.00
2010,10,27,15,59,9.90
2010,10,27,16,00,7.20
2010,10,27,16,01,8.50
2010,10,27,16,02,6.30
2010,10,27,16,03,9.80
2010,10,27,16,04,10.00
2010,10,27,16,05,11.00
2010,10,27,16,06,10.50
2010,10,27,16,07,10.00
2010,10,27,16,08,9.10
2010,10,27,16,09,7.90
2010,10,27,16,10,6.10
2010,10,27,16,11,6.60
2010,10,27,16,12,6.40
2010,10,27,16,13,3.80
2010,10,27,16,14,5.80
2010,10,27,16,15,8.80
2010,10,27,16,16,9.90
2010,10,27,16,17,7.60
2010,10,27,16,18,8.00
2010,10,27,16,19,9.30
2010,10,27,16,20,8.60
2010,10,27,16,21,5.80
2010,10,27,16,22,5.60
2010,10,27,16,23,6.30
2010,10,27,16,24,5.00
2010,10,27,16,25,8.60
2010,10,27,16,26,8.80
2010,10,27,16,27,6.50
2010,10,27,16,28,12.70
2010,10,27,16,29,5.70
2010,10,27,16,30,8.90
2010,10,27,16,31,8.30
2010,10,27,16,32,7.50
2010,10,27,16,33,6.40
2010,10,27,16,34,7.20
2010,10,27,16,35,7.80
2010,10,27,16,36,9.40
2010,10,27,16,37,8.30
2010,10,27,16,38,3.70
2010,10,27,16,39,7.70
2010,10,27,16,40,7.90
2010,10,27,16,41,8.80
2010,10,27,16,42,5.60
2010,10,27,16,43,8.50
2010,10,27,16,44,7.50
2010,10,27,16,45,13.40
2010,10,27,16,46,11.00
2010,10,27,16,47,6.40
2010,10,27,16,48,7.50
2010,10,27,16,49,6.90
2010,10,27,16,50,3.70
2010,10,27,16,51,2.00
2010,10,27,16,52,1.90
2010,10,27,16,53,3.50
2010,10,27,16,54,4.20
2010,10,27,16,55,4.70
2010,10,27,16,56,3.70
2010,10,27,16,57,3.00
2010,10,27,16,58,4.10
2010,10,27,16,59,0.80
2010,10,27,17,00,4.40
2010,10,27,17,01,3.00
2010,10,27,17,02,1.60
2010,10,27,17,03,2.80
2010,10,27,17,04,3.50
2010,10,27,17,05,5.10
2010,10,27,17,06,8.60
2010,10,27,17,07,3.20
2010,10,27,17,08,7.30
2010,10,27,17,09,8.10
2010,10,27,17,10,4.80
2010,10,27,17,11,4.50
2010,10,27,17,12,7.50
2010,10,27,17,13,5.70
2010,10,27,17,14,7.50
2010,10,27,17,15,8.00
2010,10,27,17,16,7.80
2010,10,27,17,17,8.60
2010,10,27,17,18,9.10
2010,10,27,17,19,10.40
2010,10,27,17,20,10.20
2010,10,27,17,21,12.00
2010,10,27,17,22,8.00
2010,10,27,17,23,9.30
2010,10,27,17,24,10.70
2010,10,27,17,25,11.30
2010,10,27,17,26,8.80
2010,10,27,17,27,8.30
2010,10,27,17,28,12.50
2010,10,27,17,29,13.60
2010,10,27,17,30,9.30
2010,10,27,17,31,12.80
2010,10,27,17,32,14.00
2010,10,27,17,33,9.50
2010,10,27,17,34,7.00
2010,10,27,17,35,13.40
2010,10,27,17,36,10.30
2010,10,27,17,37,7.20
2010,10,27,17,38,6.50
2010,10,27,17,39,8.70
2010,10,27,17,40,8.10
2010,10,27,17,41,6.80
2010,10,27,17,42,10.20
2010,10,27,17,43,9.10
2010,10,27,17,44,11.70
2010,10,27,17,45,8.60
2010,10,27,17,46,9.10
2010,10,27,17,47,10.10
2010,10,27,17,48,9.90
2010,10,27,17,49,7.20
2010,10,27,17,50,10.60
2010,10,27,17,51,9.20
2010,10,27,17,52,7.60
2010,10,27,17,53,11.80
2010,10,27,17,54,8.10
2010,10,27,17,55,11.90
2010,10,27,17,56,12.90
2010,10,27,17,57,8.80
2010,10,27,17,58,10.10
2010,10,27,17,59,9.30
2010,10,27,18,00,10.30
2010,10,27,18,01,12.60